Regional Weather Roundup
Issued by NWS Little Rock, AR

Home | Current Version | Previous Version | Graphics & Text | Print | Product List | Glossary On
Versions: 1 2 3 4 5 6 7 8 9 10 11 12 13 14 15 16 17 18 19 20 21 22 23 24 25 26 27 28 29 30 31 32 33 34 35 36 37 38 39 40 41 42 43 44 45 46 47 48 49 50
000
ASUS44 KLZK 041205
RWRLZK

WEATHER ROUNDUP FOR ARKANSAS
NATIONAL WEATHER SERVICE LITTLE ROCK AR
600 AM CST WED MAR 04 2015

NOTE: "FAIR" INDICATES FEW OR NO CLOUDS BELOW 12,000 FEET WITH NO
SIGNIFICANT WEATHER AND/OR OBSTRUCTIONS TO VISIBILITY.

ARZ001-003-010-029-041300-
NORTHWEST ARKANSAS

CITY           SKY/WX    TMP DP  RH WIND       PRES   REMARKS
FAYETTEVILLE   LGT RAIN  35  35 100 N6        29.98R FOG     WCI  30
6HR MIN TEMP:  35; 6HR MAX TEMP:  48; 6HR PCP:  0.02;

FORT SMITH     LGT RAIN  47  45  93 N13       29.91R
6HR MIN TEMP:  45; 6HR MAX TEMP:  47; 6HR PCP:  0.03;

HARRISON       LGT RAIN  35  35 100 N8G17     29.99R FOG     WCI  29
6HR MIN TEMP:  35; 6HR MAX TEMP:  45; 6HR PCP:  0.08;

BENTONVILLE    CLOUDY    34  30  86 NE14      30.01R WCI  24
6HR MIN TEMP:  34; 6HR MAX TEMP:  46; 6HR PCP:  0.07;

ROGERS         MIX PCPN  33  32  96 N14       30.01R FOG     WCI  23
6HR MIN TEMP:  33; 6HR MAX TEMP:  44; 6HR PCP:  0.06;

SILOAM SPGS    CLOUDY    34  28  80 NE16      30.01R WCI  23
6HR MIN TEMP:  34; 6HR MAX TEMP:  46; 6HR PCP:  0.04;

HIGHFILL       LGT SNOW  34  32  92 N16       29.99R FOG     WCI  24
6HR MIN TEMP:  34; 6HR MAX TEMP:  46; 6HR PCP:  0.07;

SPRINGDALE     LGT RAIN  36  34  93 N17       30.00  FOG
$$

ARZ004-005-016-041300-
NORTH CENTRAL ARKANSAS

CITY           SKY/WX    TMP DP  RH WIND       PRES   REMARKS
BATESVILLE     CLOUDY    48  48 100 NE7       29.92R
6HR MIN TEMP:  48; 6HR MAX TEMP:  52; 6HR PCP:  0.69;

FLIPPIN        CLOUDY    37  34  87 N13G18    29.98R
6HR MIN TEMP:  37; 6HR MAX TEMP:  46; 6HR PCP:  0.11;

MTN HOME       RAIN      37  36  96 VRB7      29.98R FOG
6HR MIN TEMP:  37; 6HR MAX TEMP:  44;

$$

ARZ040-041-041300-
WEST CENTRAL ARKANSAS

CITY           SKY/WX    TMP DP  RH WIND       PRES   REMARKS
MENA           CLOUDY    54  52  94 W5        29.89R
MOUNT IDA      LGT RAIN  51  50  96 CALM      29.85R VSB 3/4
6HR MIN TEMP:  51; 6HR MAX TEMP:  52; 6HR PCP:  0.08;

$$

ARZ009-017-025-026-028-041300-
NORTHEAST ARKANSAS

CITY           SKY/WX    TMP DP  RH WIND       PRES   REMARKS
CORNING        LGT RAIN  41  41 100 NE14      29.97R
JONESBORO      RAIN      44  50 100 NE13      29.92R
6HR MIN TEMP:  44; 6HR MAX TEMP:  51; 6HR PCP:  0.38;

NEWPORT        LGT RAIN  45  45 100 N15       29.93R
6HR MIN TEMP:  45; 6HR MAX TEMP:  52; 6HR PCP:  0.24;

WALNUT RIDGE   CLOUDY    43  39  87 N12       29.94R
6HR MIN TEMP:  43; 6HR MAX TEMP:  46; 6HR PCP:  0.74;

BLYTHEVILLE    LGT RAIN  45  45 100 N17       29.91R FOG
6HR MIN TEMP:  45; 6HR MAX TEMP:  50; 6HR PCP:  0.18;

$$

ARZ022-023-033-042-044-041300-
CENTRAL ARKANSAS

CITY           SKY/WX    TMP DP  RH WIND       PRES   REMARKS
LITTLE ROCK    LGT RAIN  52  49  89 CALM      29.89R VSB 1/2
6HR MIN TEMP:  52; 6HR MAX TEMP:  53; 6HR PCP:  0.12;

N LITTLE ROCK    N/A     52  52 100 NE7       29.89R
6HR MIN TEMP:  52; 6HR MAX TEMP:  53;

JACKSONVILLE   LGT RAIN  52  52 100 NE6       29.89R
6HR MIN TEMP:  52; 6HR MAX TEMP:  53;

SEARCY         LGT RAIN  50  49  96 N7        29.92R FOG
6HR MIN TEMP:  50; 6HR MAX TEMP:  52; 6HR PCP:  0.28;

HOT SPRINGS    CLOUDY    54  53  97 CALM      29.88R FOG
6HR MIN TEMP:  53; 6HR MAX TEMP:  54; 6HR PCP: TRACE;

RUSSELLVILLE   CLOUDY    47  47 100 CALM      29.88R FOG
6HR MIN TEMP:  47; 6HR MAX TEMP:  48; 6HR PCP:  0.01;

CLINTON        LGT RAIN  48  48 100 NW3       29.94R
$$

ARZ036-041300-
EAST ARKANSAS

CITY           SKY/WX    TMP DP  RH WIND       PRES   REMARKS
WEST MEMPHIS   CLOUDY    50  50 100 N6        29.87S FOG
6HR MIN TEMP:  50; 6HR MAX TEMP:  58; 6HR PCP:  0.12;

$$

ARZ050-053-066-070-073-041300-
SOUTHWEST ARKANSAS

CITY           SKY/WX    TMP DP  RH WIND       PRES   REMARKS
ARKADELPHIA    FOG       52  52 100 CALM      29.89R VSB 1
6HR MIN TEMP:  50; 6HR MAX TEMP:  52; 6HR PCP:  0.02;

CAMDEN         FOG       59  57  94 CALM      29.89R VSB 3/4
TEXARKANA      FOG       55  55 100 CALM      29.88R VSB 1/4
6HR MIN TEMP:  52; 6HR MAX TEMP:  57; 6HR PCP: TRACE;

EL DORADO      CLOUDY    64  63  96 S6        29.88R
6HR MIN TEMP:  62; 6HR MAX TEMP:  65;

DE QUEEN       FOG       50  49  96 CALM      29.88R VSB 1/2
6HR MIN TEMP:  50; 6HR MAX TEMP:  51; 6HR PCP: TRACE;

$$

ARZ056-057-069-041300-
SOUTHEAST ARKANSAS

CITY           SKY/WX    TMP DP  RH WIND       PRES   REMARKS
PINE BLUFF     CLOUDY    56  54  93 N6        29.88R
6HR MIN TEMP:  55; 6HR MAX TEMP:  65;

STUTTGART      CLOUDY    52  48  87 NE6       29.90R
6HR MIN TEMP:  52; 6HR MAX TEMP:  57; 6HR PCP:  0.04;

MONTICELLO     CLOUDY    65  62  90 SW6       29.89R
6HR MIN TEMP:  64; 6HR MAX TEMP:  67;


$$




USA.gov is the U.S. government's official web portal to all federal, state and local government web resources and services.